TimeCST,TemperatureF,Dew PointF,Humidity,Sea Level PressureIn,VisibilityMPH,Wind Direction,Wind SpeedMPH,Gust SpeedMPH,PrecipitationIn,Events,Conditions,WindDirDegrees,DateUTC
12:53 AM,55.9,48.9,77,30.06,10.0,Calm,Calm,-,N/A,,Clear,0,2012-11-05 06:53:00
1:53 AM,55.0,50.0,83,30.05,10.0,Calm,Calm,-,N/A,,Clear,0,2012-11-05 07:53:00
2:53 AM,53.1,50.0,89,30.05,10.0,Calm,Calm,-,N/A,,Clear,0,2012-11-05 08:53:00
3:53 AM,53.1,50.0,89,30.04,10.0,Calm,Calm,-,N/A,,Clear,0,2012-11-05 09:53:00
4:53 AM,54.0,50.0,86,30.04,10.0,Calm,Calm,-,N/A,,Scattered Clouds,0,2012-11-05 10:53:00
5:53 AM,54.0,50.0,86,30.05,10.0,Calm,Calm,-,N/A,,Scattered Clouds,0,2012-11-05 11:53:00
6:21 AM,53.6,50.0,88,30.05,4.0,Calm,Calm,-,N/A,,Scattered Clouds,0,2012-11-05 12:21:00
6:34 AM,53.6,50.0,88,30.05,3.0,Calm,Calm,-,N/A,,Scattered Clouds,0,2012-11-05 12:34:00
6:36 AM,53.6,50.0,88,30.05,2.5,Calm,Calm,-,N/A,,Scattered Clouds,0,2012-11-05 12:36:00
6:45 AM,53.6,50.0,88,30.05,2.5,Calm,Calm,-,N/A,,Scattered Clouds,0,2012-11-05 12:45:00
6:53 AM,53.1,51.1,93,30.04,3.0,Calm,Calm,-,N/A,,Scattered Clouds,0,2012-11-05 12:53:00
7:13 AM,53.6,50.0,88,30.06,3.0,Calm,Calm,-,N/A,,Scattered Clouds,0,2012-11-05 13:13:00
7:53 AM,55.0,53.1,93,30.05,5.0,Calm,Calm,-,N/A,,Scattered Clouds,0,2012-11-05 13:53:00
8:53 AM,61.0,55.0,81,30.06,5.0,Calm,Calm,-,N/A,,Haze,0,2012-11-05 14:53:00
9:53 AM,66.9,46.9,49,30.07,10.0,North,9.2,-,N/A,,Scattered Clouds,350,2012-11-05 15:53:00
10:53 AM,70.0,44.1,39,30.07,10.0,NNW,15.0,-,N/A,,Scattered Clouds,340,2012-11-05 16:53:00
11:53 AM,73.0,41.0,31,30.05,10.0,NNW,15.0,20.7,N/A,,Partly Cloudy,340,2012-11-05 17:53:00
12:53 PM,75.0,39.0,27,30.02,10.0,NNW,13.8,25.3,N/A,,Partly Cloudy,340,2012-11-05 18:53:00
1:53 PM,75.0,39.9,28,30.01,10.0,North,12.7,20.7,N/A,,Scattered Clouds,350,2012-11-05 19:53:00
2:53 PM,75.9,39.0,26,30.00,10.0,North,13.8,18.4,N/A,,Scattered Clouds,350,2012-11-05 20:53:00
3:53 PM,75.0,37.0,25,30.00,10.0,NNW,15.0,23.0,N/A,,Scattered Clouds,340,2012-11-05 21:53:00
4:53 PM,73.0,34.0,24,30.00,10.0,North,16.1,23.0,N/A,,Scattered Clouds,350,2012-11-05 22:53:00
5:53 PM,70.0,32.0,25,30.02,10.0,North,10.4,-,N/A,,Scattered Clouds,350,2012-11-05 23:53:00
6:53 PM,66.9,30.0,25,30.05,10.0,North,12.7,-,N/A,,Scattered Clouds,360,2012-11-06 00:53:00
7:53 PM,64.9,28.9,26,30.07,10.0,North,11.5,-,N/A,,Partly Cloudy,360,2012-11-06 01:53:00
8:53 PM,62.1,30.9,31,30.08,10.0,North,6.9,-,N/A,,Partly Cloudy,10,2012-11-06 02:53:00
9:53 PM,60.1,33.1,36,30.09,10.0,North,9.2,-,N/A,,Partly Cloudy,10,2012-11-06 03:53:00
10:53 PM,55.9,33.1,42,30.11,10.0,North,8.1,-,N/A,,Partly Cloudy,350,2012-11-06 04:53:00
11:53 PM,54.0,35.1,49,30.10,10.0,North,3.5,-,N/A,,Partly Cloudy,350,2012-11-06 05:53:00